This demonstration page uses our WeatherBlox Daily Observations layout. Learn more.

Left ArrowRight Arrow

Hourly Observations for December 8, 2015

Temp ( °F °C ) Dew Point ( °F °C ) Humidity (%) Winds ( mph kmh ) Pressure ( in mb ) Visibility ( mi km ) Precip ( " mm )
12:53 am 00:53 Cloudy 47 8.3 38 3.3 71 71 SSW 3 6 30.14 1021 10 16 N/A
1:53 am 01:53 Cloudy 46 7.8 38 3.3 73 73 N N/A 30.14 1021 10 16 N/A
2:14 am 02:14 Mostly Cloudy 45 7.2 38 3.3 77 77 N N/A 30.12 1020 10 16 N/A
2:53 am 02:53 Clear 40 4.4 36 2.2 86 86 N N/A 30.13 1020 10 16 N/A
3:53 am 03:53 Mostly Clear with Mist and Fog 34 1.1 33 0.6 97 97 N N/A 30.13 1020 6 10 N/A
4:09 am 04:09 Mostly Cloudy with Mist and Fog 35 1.7 34 1.1 96 96 N N/A 30.12 1020 5 8 N/A
4:44 am 04:44 Partly Cloudy 36 2.2 34 1.1 93 93 N N/A 30.12 1020 7 11 N/A
4:53 am 04:53 Mostly Cloudy with Mist and Fog 35 1.7 34 1.1 96 96 N N/A 30.13 1020 6 10 N/A
5:53 am 05:53 Cloudy 41 5 39 3.9 93 93 N N/A 30.11 1020 7 11 N/A
6:53 am 06:53 Cloudy 43 6.1 40 4.4 89 89 SSW 5 7 30.12 1020 7 11 N/A
7:53 am 07:53 Cloudy with Mist and Fog 43 6.1 39 3.9 86 86 N N/A 30.12 1020 5 8 N/A
8:53 am 08:53 Mostly Cloudy 43 6.1 39 3.9 86 86 VRB 3 6 30.11 1020 7 11 N/A
9:01 am 09:01 Partly Cloudy 45 7.2 39 3.9 80 80 VRB 3 6 30.12 1020 7 11 N/A
9:53 am 09:53 Sunny 47 8.3 40 4.4 77 77 VRB 6 9 30.11 1020 10 16 N/A
10:53 am 10:53 Mostly Sunny 50 10 40 4.4 68 68 VRB 6 9 30.11 1020 10 16 N/A
11:53 am 11:53 Sunny 52 11.1 40 4.4 64 64 SW 9 15 30.08 1019 10 16 N/A
12:53 pm 12:53 Sunny 54 12.2 36 2.2 51 51 SSW 6 9 30.05 1018 10 16 N/A
1:53 pm 13:53 Sunny 56 13.3 37 2.8 49 49 SSW 9 15 30.03 1017 10 16 N/A
2:53 pm 14:53 Sunny 56 13.3 37 2.8 49 49 SSW 9 15 30.01 1016 10 16 N/A
3:53 pm 15:53 Sunny 56 13.3 36 2.2 47 47 VRB 3 6 30.00 1016 10 16 N/A
4:53 pm 16:53 Sunny 54 12.2 36 2.2 51 51 VRB 5 7 30.00 1016 10 16 N/A
5:53 pm 17:53 Clear 45 7.2 36 2.2 71 71 N N/A 30.01 1016 10 16 N/A
6:53 pm 18:53 Clear 43 6.1 35 1.7 74 74 N N/A 30.00 1016 10 16 N/A
7:53 pm 19:53 Clear 44 6.7 36 2.2 73 73 ESE 3 6 30.01 1016 10 16 N/A
8:53 pm 20:53 Clear 48 8.9 37 2.8 66 66 SSE 3 6 29.99 1016 10 16 N/A
9:53 pm 21:53 Clear 48 8.9 36 2.2 63 63 N N/A 29.97 1015 10 16 N/A
10:53 pm 22:53 Clear 43 6.1 35 1.7 74 74 N N/A 29.96 1015 10 16 N/A
11:53 pm 23:53 Clear 39 3.9 33 0.6 79 79 ESE 3 6 29.96 1015 10 16 N/A

Powered by AerisWeather